This demonstration page uses our WeatherBlox Daily Observations layout. Learn more.

Left ArrowRight Arrow

38.20091, -84.87328

Hourly Observations for July 30, 2019

Temp ( °F °C ) Dew Point ( °F °C ) Humidity (%) Winds ( mph kmh ) Pressure ( in mb ) Visibility ( mi km ) Precip ( " mm )
12:53 am 00:53 Mostly Cloudy with Mist and Fog 72 22.2 69 20.6 91 91 Calm 29.98 1015 5 8 0.01 0.25
1:53 am 01:53 Partly Cloudy with Light Rain 72 22.2 69 20.6 91 91 W 3 6 29.98 1015 5 8 0.01 0.25
2:25 am 02:25 Cloudy with Light Rain 72 22.2 69 20.6 91 91 SSW 3 6 29.98 1015 3 4 0.04 1.02
2:34 am 02:34 Cloudy with Strong Thunderstorms 72 22.2 69 20.6 91 91 WNW 7 11 29.99 1016 2 2 0.13 3.30
2:53 am 02:53 Cloudy with Thunderstorms 72 22.2 70 21.1 94 94 Calm 29.97 1015 2 3 0.23 5.84
2:59 am 02:59 Cloudy with Heavy Rain 72 22.2 70 21.1 94 94 Calm 29.97 1015 3 5 0.02 0.51
3:14 am 03:14 Cloudy with Nearby Thunderstorms 72 22.2 69 20.6 91 91 ENE 3 6 29.97 1015 7 11 0.02 0.51
3:29 am 03:29 Cloudy with Rain 72 22.2 70 21.1 94 94 NW 6 9 29.97 1015 4 6 0.04 1.02
3:53 am 03:53 Cloudy 72 22.2 70 21.1 94 94 SE 5 7 29.95 1014 8 13 0.06 1.52
4:06 am 04:06 Cloudy with Thunderstorms 72 22.2 70 21.1 94 94 SW 5 7 29.96 1015 7 11 0.00 0.00
4:11 am 04:11 Cloudy with Thunderstorms 72 22.2 70 21.1 94 94 SW 30 48 29.99 1016 3 4 0.08 2.03
4:15 am 04:15 Cloudy with Strong Thunderstorms 69 20.6 66 18.9 90 90 SSW 20 31 29.99 1016 1 2 0.15 3.81
4:19 am 04:19 Cloudy with Strong Thunderstorms 70 21.1 67 19.4 90 90 SSW 14 22 29.98 1015 1 2 0.25 6.35
4:27 am 04:27 Cloudy with Strong Thunderstorms 70 21.1 67 19.4 90 90 S 9 15 29.96 1014 2 2 0.40 10.16
4:32 am 04:32 Cloudy with Nearby Thunderstorms 71 21.7 67 19.4 87 87 S 7 11 29.96 1014 3 5 0.40 10.16
4:53 am 04:53 Mostly Cloudy 71 21.7 68 20 90 90 Calm 29.95 1014 10 16 0.40 10.16
5:35 am 05:35 Partly Cloudy with Nearby Thunderstorms 70 21.1 68 20 93 93 SSW 5 7 29.97 1015 5 8 0.00 0.00
5:46 am 05:46 Mostly Cloudy with Mist and Fog 71 21.7 69 20.6 94 94 SSW 10 17 29.98 1015 3 4 0.00 0.00
5:53 am 05:53 Partly Cloudy with Nearby Thunderstorms 71 21.7 68 20 90 90 S 13 20 29.97 1015 3 5 0.00 0.00
6:09 am 06:09 Mostly Cloudy with Mist and Fog 71 21.7 67 19.4 87 87 S 8 13 29.98 1015 5 8 0.00 0.00
6:53 am 06:53 Cloudy 70 21.1 67 19.4 90 90 SW 5 7 29.98 1015 8 13 0.00 0.00
7:53 am 07:53 Mostly Cloudy 70 21.1 68 20 93 93 Calm 29.98 1015 8 13 0.01 0.25
8:53 am 08:53 Mostly Cloudy with Mist and Fog 73 22.8 69 20.6 87 87 SW 3 6 30.00 1016 6 10 0.00 0.00
9:53 am 09:53 Cloudy with Mist and Fog 75 23.9 71 21.7 88 88 SSW 5 7 30.01 1016 6 10 0.00 0.00
10:11 am 10:11 Cloudy with Haze 76 24.4 71 21.7 85 85 SSW 8 13 30.01 1016 5 8 0.00 0.00
10:53 am 10:53 Mostly Cloudy with Haze 78 25.6 72 22.2 82 82 S 6 9 30.02 1017 6 10 0.00 0.00
11:53 am 11:53 Cloudy 79 26.1 71 21.7 77 77 SW 7 11 30.01 1016 7 11 0.00 0.00
12:53 pm 12:53 Cloudy with Haze 80 26.7 70 21.1 71 71 SW 9 15 30.01 1016 5 8 0.00 0.00
1:08 pm 13:08 Cloudy with Light Rain 79 26.1 70 21.1 74 74 S 12 19 29.99 1016 5 8 0.00 0.00
1:28 pm 13:28 Mostly Cloudy with Light Rain 78 25.6 71 21.7 79 79 SSW 10 17 29.99 1015 6 10 0.01 0.25
3:40 pm 15:40 Mostly Cloudy with Nearby Thunderstorms 82 27.8 71 21.7 69 69 SW 10 17 29.94 1014 3 4 0.00 0.00
3:50 pm 15:50 Mostly Cloudy with Nearby Thunderstorms 84 29 72 22 66 66 WSW 8 13 29.93 1013 5 8 0.00 0.00
3:53 pm 15:53 Partly Cloudy with Nearby Thunderstorms 86 30 72 22.2 63 63 WSW 9 15 29.94 1014 6 10 0.00 0.00
4:02 pm 16:02 Mostly Cloudy with Haze 84 28.9 71 21.7 65 65 WSW 12 19 29.93 1013 5 8 0.00 0.00
4:43 pm 16:43 Mostly Cloudy with Nearby Thunderstorms 85 29.4 70 21.1 61 61 W 6 9 29.92 1013 9 14 0.00 0.00
4:53 pm 16:53 Partly Cloudy 85 29.4 71 21.7 63 63 WSW 5 7 29.93 1014 8 13 0.00 0.00
5:53 pm 17:53 Mostly Cloudy with Nearby Thunderstorms 86 30 69 20.6 57 57 NW 6 9 29.95 1014 10 16 0.00 0.00
6:13 pm 18:13 Cloudy 78 25.6 67 19.4 69 69 SE 12 19 29.96 1014 10 16 0.00 0.00
6:31 pm 18:31 Cloudy with Thunderstorms 76 24.4 68 20 77 77 SE 13 20 29.97 1015 10 16 0.00 0.00
6:46 pm 18:46 Cloudy with Nearby Thunderstorms 74 23.3 68 20 82 82 SE 13 20 29.97 1015 10 16 0.00 0.00
6:53 pm 18:53 Mostly Cloudy with Nearby Thunderstorms 74 23.3 68 20 82 82 SSE 15 24 29.97 1015 10 16 0.00 0.00
7:02 pm 19:02 Mostly Cloudy with Thunderstorms 74 23.3 68 20 82 82 ESE 12 19 29.97 1015 8 13 0.00 0.00
7:19 pm 19:19 Mostly Cloudy with Thunderstorms 73 22.8 66 18.9 79 79 NNE 17 28 30.01 1016 10 16 0.02 0.51
7:26 pm 19:26 Cloudy with Strong Thunderstorms 71 21.7 67 19.4 87 87 NNE 13 20 30.02 1016 2 3 0.14 3.56
7:29 pm 19:29 Cloudy with Strong Thunderstorms 70 21.1 67 19.4 90 90 NNE 10 17 30.01 1016 1 2 0.25 6.35
7:36 pm 19:36 Cloudy with Strong Thunderstorms 69 20.6 67 19.4 93 93 NE 10 17 30.01 1016 1 1 0.57 14.48
7:53 pm 19:53 Cloudy with Strong Thunderstorms 68 20 66 18.9 93 93 SSE 6 9 30.00 1016 1 1 0.95 24.13
7:56 pm 19:56 Cloudy with Strong Thunderstorms 68 20 67 19.4 96 96 SSE 5 7 29.99 1016 1 2 0.02 0.51
8:15 pm 20:15 Cloudy with Thunderstorms 68 20 67 19.4 96 96 SW 13 20 30.02 1017 3 5 0.10 2.54
8:30 pm 20:30 Mostly Cloudy with Thunderstorms 69 20.6 67 19.4 93 93 WSW 8 13 30.01 1016 1 2 0.12 3.05
8:35 pm 20:35 Mostly Cloudy with Thunderstorms 69 20.6 67 19.4 93 93 WSW 7 11 30.00 1016 4 6 0.12 3.05
8:44 pm 20:44 Mostly Cloudy with Nearby Thunderstorms 69 20.6 67 19.4 93 93 W 7 11 29.99 1016 10 16 0.12 3.05
8:53 pm 20:53 Mostly Cloudy 69 20.6 67 19.4 93 93 WSW 5 7 29.99 1016 10 16 0.12 3.05
9:53 pm 21:53 Mostly Clear 70 21.1 67 19.4 90 90 Calm 29.98 1015 10 16 0.00 0.00
10:53 pm 22:53 Clear with Mist and Fog 69 20.6 67 19.4 93 93 SSW 3 6 30.02 1017 4 6 0.00 0.00
11:32 pm 23:32 Mostly Clear with Mist and Fog 68 20 66 18.9 93 93 S 3 6 30.03 1017 5 8 0.00 0.00
11:53 pm 23:53 Mostly Clear with Mist and Fog 68 20 66 18.9 93 93 Calm 30.03 1017 6 10 0.00 0.00

Powered by AerisWeather